• Em Portugal
  • Lista de países
  • Para 7 dias
  • Temperatura da água
  • Mapas de satélite
  • Mapa do tempo
  • Widgets de tempo
  • user-avatar
    Iniciar Sessão

    Previsão horária em Punta Gorda

    Hoje, 24 Novembro, Sexta-feira

    Tempo Temperatura Precipitação Vento Pressão Humidade
    00:00 +21°C° 0 mm 3 m/s 762 mmHg 86%
    01:00 +21°C° 0 mm 3 m/s 762 mmHg 87%
    02:00 +21°C° 0 mm 2 m/s 762 mmHg 87%
    03:00 +21°C° 0 mm 2 m/s 761 mmHg 88%
    04:00 +21°C° 0 mm 2 m/s 762 mmHg 89%
    05:00 +20°C° 0 mm 2 m/s 762 mmHg 90%
    06:00 +20°C° 0 mm 2 m/s 762 mmHg 91%
    07:00 +23°C° 0 mm 2 m/s 762 mmHg 83%
    08:00 +25°C° 0 mm 2 m/s 762 mmHg 75%
    09:00 +26°C° 0 mm 2 m/s 763 mmHg 67%
    10:00 +27°C° 0 mm 2 m/s 762 mmHg 62%
    11:00 +29°C° 0 mm 1 m/s 762 mmHg 57%
    12:00 +30°C° 0 mm 1 m/s 761 mmHg 52%
    13:00 +30°C° 0 mm 1 m/s 761 mmHg 52%
    14:00 +30°C° 0 mm 1 m/s 760 mmHg 53%
    15:00 +29°C° 0 mm 1 m/s 759 mmHg 54%
    16:00 +28°C° 0 mm 1 m/s 760 mmHg 62%
    17:00 +26°C° 0 mm 1 m/s 760 mmHg 70%
    18:00 +24°C° 0 mm 1 m/s 760 mmHg 78%
    19:00 +24°C° 0 mm 1 m/s 761 mmHg 81%
    20:00 +23°C° 0 mm 1 m/s 762 mmHg 84%
    21:00 +23°C° 0 mm 1 m/s 762 mmHg 87%
    22:00 +22°C° 0 mm 1 m/s 762 mmHg 88%
    23:00 +22°C° 0 mm 1 m/s 762 mmHg 89%

    Amanhã, 25 Novembro, Sábado

    Tempo Temperatura Precipitação Vento Pressão Humidade
    00:00 +22°C° 0 mm 1 m/s 762 mmHg 90%
    01:00 +22°C° 0 mm 1 m/s 762 mmHg 91%
    02:00 +21°C° 0 mm 1 m/s 761 mmHg 92%
    03:00 +21°C° 0 mm 1 m/s 761 mmHg 93%
    04:00 +21°C° 0 mm 1 m/s 761 mmHg 93%
    05:00 +21°C° 0 mm 1 m/s 761 mmHg 94%
    06:00 +21°C° 0 mm 1 m/s 761 mmHg 94%
    07:00 +23°C° 0 mm 1 m/s 762 mmHg 83%
    08:00 +26°C° 0 mm 1 m/s 762 mmHg 72%
    09:00 +28°C° 0 mm 1 m/s 762 mmHg 61%
    10:00 +29°C° 0 mm 1 m/s 762 mmHg 57%
    11:00 +31°C° 0 mm 1 m/s 761 mmHg 53%
    12:00 +32°C° 0 mm 1 m/s 761 mmHg 49%
    13:00 +31°C° 0 mm 2 m/s 760 mmHg 51%
    14:00 +31°C° 0 mm 2 m/s 759 mmHg 54%
    15:00 +30°C° 0 mm 3 m/s 759 mmHg 56%
    16:00 +28°C° 0 mm 2 m/s 759 mmHg 65%
    17:00 +27°C° 0 mm 2 m/s 759 mmHg 74%
    18:00 +25°C° 0 mm 2 m/s 760 mmHg 83%
    19:00 +24°C° 0 mm 2 m/s 761 mmHg 86%
    20:00 +24°C° 0 mm 2 m/s 761 mmHg 89%
    21:00 +23°C° 0 mm 2 m/s 762 mmHg 92%
    22:00 +23°C° 0 mm 1 m/s 762 mmHg 93%
    23:00 +23°C° 0 mm 1 m/s 762 mmHg 94%

    Depois de amanhã, 26 Novembro, Domingo

    Tempo Temperatura Precipitação Vento Pressão Humidade
    00:00 +23°C° 0 mm 1 m/s 762 mmHg 95%
    01:00 +22°C° 0 mm 1 m/s 762 mmHg 96%
    02:00 +22°C° 0 mm 1 m/s 761 mmHg 96%
    03:00 +22°C° 0 mm 1 m/s 761 mmHg 97%
    04:00 +22°C° 0 mm 1 m/s 761 mmHg 97%
    05:00 +22°C° 0 mm 1 m/s 761 mmHg 97%
    06:00 +22°C° 0 mm 1 m/s 762 mmHg 97%
    07:00 +24°C° 0 mm 1 m/s 762 mmHg 86%
    08:00 +26°C° 0 mm 1 m/s 763 mmHg 76%
    09:00 +29°C° 0 mm 1 m/s 763 mmHg 65%
    10:00 +30°C° 0 mm 1 m/s 763 mmHg 59%
    11:00 +32°C° 0 mm 1 m/s 762 mmHg 53%
    12:00 +33°C° 0 mm 1 m/s 762 mmHg 47%
    13:00 +32°C° 0 mm 1 m/s 761 mmHg 50%
    14:00 +31°C° 0 mm 1 m/s 761 mmHg 54%
    15:00 +30°C° 0 mm 2 m/s 760 mmHg 57%
    16:00 +28°C° 0,2 mm 2 m/s 760 mmHg 68%
    17:00 +26°C° 0,2 mm 2 m/s 761 mmHg 79%
    18:00 +24°C° 0,2 mm 2 m/s 761 mmHg 89%
    19:00 +24°C° 0,4 mm 2 m/s 762 mmHg 91%
    20:00 +23°C° 0,4 mm 2 m/s 762 mmHg 92%
    21:00 +23°C° 0,4 mm 1 m/s 763 mmHg 94%
    22:00 +23°C° 0,4 mm 1 m/s 763 mmHg 94%
    23:00 +23°C° 0,4 mm 1 m/s 763 mmHg 94%

    27 Novembro, Segunda-feira

    Tempo Temperatura Precipitação Vento Pressão Humidade
    00:00 +22°C° 0,4 mm 1 m/s 763 mmHg 94%
    01:00 +21°C° 0,2 mm 2 m/s 763 mmHg 92%
    02:00 +21°C° 0,2 mm 2 m/s 762 mmHg 91%
    03:00 +21°C° 0,2 mm 3 m/s 762 mmHg 90%
    04:00 +21°C° 0,1 mm 3 m/s 763 mmHg 89%
    05:00 +20°C° 0,1 mm 2 m/s 763 mmHg 88%
    06:00 +20°C° 0,1 mm 2 m/s 763 mmHg 87%
    07:00 +21°C° 0 mm 2 m/s 764 mmHg 81%
    08:00 +24°C° 0 mm 2 m/s 764 mmHg 74%
    09:00 +25°C° 0 mm 2 m/s 764 mmHg 68%
    10:00 +27°C° 0 mm 2 m/s 764 mmHg 60%
    11:00 +28°C° 0 mm 2 m/s 763 mmHg 52%
    12:00 +30°C° 0 mm 2 m/s 762 mmHg 44%
    13:00 +30°C° 0 mm 2 m/s 761 mmHg 45%
    14:00 +30°C° 0 mm 2 m/s 761 mmHg 45%
    15:00 +30°C° 0 mm 2 m/s 760 mmHg 45%
    16:00 +28°C° 0 mm 2 m/s 760 mmHg 55%
    17:00 +26°C° 0 mm 2 m/s 761 mmHg 64%
    18:00 +24°C° 0 mm 2 m/s 761 mmHg 73%
    19:00 +23°C° 0 mm 1 m/s 762 mmHg 76%
    20:00 +23°C° 0 mm 1 m/s 762 mmHg 80%
    21:00 +22°C° 0 mm 1 m/s 763 mmHg 83%
    22:00 +22°C° 0 mm 1 m/s 762 mmHg 83%
    23:00 +21°C° 0 mm 1 m/s 762 mmHg 84%

    28 Novembro, Terça-feira

    Tempo Temperatura Precipitação Vento Pressão Humidade
    00:00 +21°C° 0 mm 1 m/s 762 mmHg 85%
    01:00 +20°C° 0 mm 2 m/s 762 mmHg 85%
    02:00 +20°C° 0 mm 2 m/s 761 mmHg 86%
    03:00 +19°C° 0 mm 2 m/s 761 mmHg 86%
    04:00 +19°C° 0 mm 2 m/s 761 mmHg 87%
    05:00 +19°C° 0 mm 2 m/s 762 mmHg 88%
    06:00 +19°C° 0 mm 2 m/s 762 mmHg 89%
    07:00 +21°C° 0 mm 2 m/s 762 mmHg 79%
    08:00 +25°C° 0 mm 2 m/s 763 mmHg 68%
    09:00 +27°C° 0 mm 1 m/s 763 mmHg 58%
    10:00 +29°C° 0 mm 1 m/s 762 mmHg 52%
    11:00 +31°C° 0 mm 1 m/s 761 mmHg 46%
    12:00 +30°C° 0 mm 0 m/s 760 mmHg 40%
    13:00 +32°C° 0 mm 1 m/s 760 mmHg 41%
    14:00 +31°C° 0 mm 1 m/s 759 mmHg 42%
    15:00 +31°C° 0 mm 2 m/s 758 mmHg 43%
    16:00 +29°C° 0 mm 2 m/s 759 mmHg 53%
    17:00 +26°C° 0 mm 2 m/s 759 mmHg 63%
    18:00 +24°C° 0 mm 2 m/s 760 mmHg 74%
    19:00 +23°C° 0 mm 1 m/s 760 mmHg 78%
    20:00 +23°C° 0 mm 1 m/s 761 mmHg 82%
    21:00 +22°C° 0 mm 1 m/s 762 mmHg 86%
    22:00 +22°C° 0 mm 1 m/s 762 mmHg 87%
    23:00 +21°C° 0 mm 1 m/s 761 mmHg 88%

    29 Novembro, Quarta-feira

    Tempo Temperatura Precipitação Vento Pressão Humidade
    00:00 +19°C° 0 mm 0 m/s 761 mmHg 89%
    01:00 +21°C° 0 mm 1 m/s 761 mmHg 89%
    02:00 +21°C° 0 mm 1 m/s 761 mmHg 89%
    03:00 +20°C° 0 mm 1 m/s 761 mmHg 89%
    04:00 +20°C° 0 mm 1 m/s 761 mmHg 90%
    05:00 +20°C° 0 mm 1 m/s 761 mmHg 90%
    06:00 +20°C° 0 mm 1 m/s 762 mmHg 90%
    07:00 +23°C° 0 mm 1 m/s 762 mmHg 80%
    08:00 +26°C° 0 mm 1 m/s 762 mmHg 70%
    09:00 +28°C° 0 mm 1 m/s 763 mmHg 60%
    10:00 +30°C° 0 mm 1 m/s 762 mmHg 56%
    11:00 +31°C° 0 mm 1 m/s 761 mmHg 51%
    12:00 +32°C° 0 mm 1 m/s 761 mmHg 47%
    13:00 +32°C° 0 mm 1 m/s 760 mmHg 49%
    14:00 +32°C° 0 mm 2 m/s 760 mmHg 51%
    15:00 +32°C° 0 mm 2 m/s 759 mmHg 53%
    16:00 +30°C° 0 mm 2 m/s 760 mmHg 63%
    17:00 +28°C° 0 mm 2 m/s 760 mmHg 72%
    18:00 +26°C° 0 mm 2 m/s 761 mmHg 82%
    19:00 +25°C° 0,3 mm 2 m/s 761 mmHg 85%
    20:00 +25°C° 0,3 mm 1 m/s 762 mmHg 89%
    21:00 +24°C° 0,3 mm 1 m/s 763 mmHg 92%
    22:00 +24°C° 0,3 mm 1 m/s 762 mmHg 93%
    23:00 +24°C° 0,3 mm 1 m/s 762 mmHg 93%
    Mostrar mais